Powrót do katalogu

SL-16 DEB

AktywnyLEO
NORAD 29097·DEBRIS·🇷🇺 Russia

Wystrzelony Mar 26, 1993 z Baikonur Cosmodrome

Loading…

Następne Przeloty (najbliższe 24 godziny)

TLE

ŚwieżeSource: Space-Track

Epoka: Sep 12, 2026, 13:57 UTC

1 29097U 93016AL  26255.58180772  .00000057  00000-0  71205-4 0  9995
2 29097  71.0087 357.8750 0123507 116.1686 258.4722 13.94627140286333

Śledź SL-16 DEB w czasie rzeczywistym z AllMySat

Download on the App Store